• In Germany
  • List of Countries
  • For 7 days
  • Water Temperature
  • Satellite Maps
  • Weather Map
  • Weather Widgets
  • user-avatar
    Login

    Hourly Weather Korfu

    Today, 15 December, Friday

    Time Temperature Precipitation Wind Pressure Humidity
    00:00 +10°C° 0 mm 5 mps 759 mmHg 92%
    01:00 +10°C° 0 mm 5 mps 759 mmHg 92%
    02:00 +10°C° 0.1 mm 5 mps 759 mmHg 93%
    03:00 +10°C° 0.1 mm 5 mps 759 mmHg 93%
    04:00 +12°C° 0.1 mm 5 mps 758 mmHg 94%
    05:00 +11°C° 0.1 mm 6 mps 758 mmHg 94%
    06:00 +11°C° 0.1 mm 6 mps 758 mmHg 94%
    07:00 +11°C° 0.1 mm 6 mps 758 mmHg 94%
    08:00 +11°C° 0 mm 7 mps 758 mmHg 91%
    09:00 +12°C° 0 mm 7 mps 758 mmHg 88%
    10:00 +13°C° 0 mm 8 mps 758 mmHg 85%
    11:00 +12°C° 0.1 mm 8 mps 757 mmHg 86%
    12:00 +12°C° 0.1 mm 8 mps 757 mmHg 87%
    13:00 +12°C° 0.1 mm 8 mps 756 mmHg 88%
    14:00 +12°C° 0.2 mm 8 mps 756 mmHg 89%
    15:00 +12°C° 0.2 mm 8 mps 756 mmHg 91%
    16:00 +12°C° 0.2 mm 8 mps 756 mmHg 93%
    17:00 +12°C° 0.2 mm 8 mps 756 mmHg 92%
    18:00 +12°C° 0.2 mm 8 mps 756 mmHg 92%
    19:00 +12°C° 0.2 mm 8 mps 756 mmHg 92%
    20:00 +12°C° 0.2 mm 8 mps 756 mmHg 92%
    21:00 +12°C° 0.2 mm 8 mps 756 mmHg 93%
    22:00 +12°C° 0.2 mm 8 mps 755 mmHg 94%
    23:00 +12°C° 0.2 mm 8 mps 755 mmHg 94%

    Tomorrow, 16 December, Saturday

    Time Temperature Precipitation Wind Pressure Humidity
    00:00 +12°C° 0.2 mm 9 mps 755 mmHg 94%
    01:00 +12°C° 0.2 mm 9 mps 755 mmHg 94%
    02:00 +12°C° 0.4 mm 9 mps 754 mmHg 94%
    03:00 +12°C° 0.4 mm 9 mps 754 mmHg 94%
    04:00 +13°C° 0.4 mm 9 mps 753 mmHg 94%
    05:00 +13°C° 0.3 mm 9 mps 753 mmHg 94%
    06:00 +13°C° 0.3 mm 8 mps 753 mmHg 94%
    07:00 +13°C° 0.3 mm 8 mps 753 mmHg 94%
    08:00 +13°C° 0.4 mm 8 mps 753 mmHg 93%
    09:00 +13°C° 0.4 mm 8 mps 753 mmHg 91%
    10:00 +15°C° 0.4 mm 8 mps 753 mmHg 89%
    11:00 +13°C° 1.8 mm 8 mps 753 mmHg 91%
    12:00 +14°C° 1.8 mm 7 mps 752 mmHg 93%
    13:00 +12°C° 1.8 mm 7 mps 752 mmHg 94%
    14:00 +13°C° 2.4 mm 6 mps 752 mmHg 95%
    15:00 +12°C° 2.4 mm 5 mps 752 mmHg 96%
    16:00 +12°C° 2.4 mm 4 mps 751 mmHg 96%
    17:00 +12°C° 1.6 mm 4 mps 752 mmHg 96%
    18:00 +12°C° 1.6 mm 4 mps 752 mmHg 97%
    19:00 +12°C° 1.6 mm 4 mps 753 mmHg 97%
    20:00 +12°C° 0.8 mm 4 mps 753 mmHg 96%
    21:00 +12°C° 0.8 mm 4 mps 753 mmHg 95%
    22:00 +12°C° 0.8 mm 4 mps 754 mmHg 94%
    23:00 +10°C° 0.2 mm 5 mps 754 mmHg 92%

    Day after tomorrow, 17 December, Sunday

    Time Temperature Precipitation Wind Pressure Humidity
    00:00 +10°C° 0.2 mm 5 mps 754 mmHg 90%
    01:00 +10°C° 0.2 mm 6 mps 754 mmHg 88%
    02:00 +9°C° 0.1 mm 6 mps 755 mmHg 87%
    03:00 +9°C° 0.1 mm 6 mps 755 mmHg 86%
    04:00 +8°C° 0.1 mm 6 mps 755 mmHg 85%
    05:00 +8°C° 0 mm 5 mps 755 mmHg 84%
    06:00 +8°C° 0 mm 5 mps 756 mmHg 83%
    07:00 +7°C° 0 mm 4 mps 756 mmHg 82%
    08:00 +8°C° 0.1 mm 4 mps 757 mmHg 77%
    09:00 +10°C° 0.1 mm 4 mps 757 mmHg 73%
    10:00 +11°C° 0.1 mm 4 mps 757 mmHg 68%
    11:00 +11°C° 0.2 mm 4 mps 757 mmHg 68%
    12:00 +11°C° 0.2 mm 4 mps 757 mmHg 67%
    13:00 +11°C° 0.2 mm 4 mps 757 mmHg 67%
    14:00 +11°C° 0.1 mm 4 mps 758 mmHg 70%
    15:00 +10°C° 0.1 mm 4 mps 758 mmHg 72%
    16:00 +10°C° 0.1 mm 4 mps 758 mmHg 75%
    17:00 +8°C° 0.1 mm 5 mps 759 mmHg 77%
    18:00 +7°C° 0.1 mm 5 mps 759 mmHg 78%
    19:00 +7°C° 0.1 mm 5 mps 760 mmHg 80%
    20:00 +7°C° 0 mm 5 mps 761 mmHg 81%
    21:00 +7°C° 0 mm 5 mps 761 mmHg 82%
    22:00 +7°C° 0 mm 6 mps 762 mmHg 82%
    23:00 +5°C° 0.1 mm 6 mps 762 mmHg 83%

    18 December, Monday

    Time Temperature Precipitation Wind Pressure Humidity
    00:00 +5°C° 0.1 mm 6 mps 762 mmHg 83%
    01:00 +5°C° 0.1 mm 6 mps 763 mmHg 83%
    02:00 +5°C° 0.1 mm 6 mps 763 mmHg 83%
    03:00 +5°C° 0.1 mm 6 mps 763 mmHg 84%
    04:00 +4°C° 0.1 mm 6 mps 763 mmHg 84%
    05:00 +4°C° 0 mm 6 mps 763 mmHg 84%
    06:00 +4°C° 0 mm 6 mps 764 mmHg 84%
    07:00 +4°C° 0 mm 6 mps 764 mmHg 84%
    08:00 +5°C° 0.1 mm 6 mps 764 mmHg 79%
    09:00 +5°C° 0.1 mm 6 mps 764 mmHg 74%
    10:00 +7°C° 0.1 mm 6 mps 765 mmHg 69%
    11:00 +8°C° 0.1 mm 6 mps 764 mmHg 67%
    12:00 +8°C° 0.1 mm 7 mps 764 mmHg 65%
    13:00 +8°C° 0.1 mm 7 mps 764 mmHg 63%
    14:00 +6°C° 0 mm 7 mps 764 mmHg 67%
    15:00 +6°C° 0 mm 7 mps 764 mmHg 70%
    16:00 +5°C° 0 mm 7 mps 764 mmHg 73%
    17:00 +5°C° 0 mm 7 mps 764 mmHg 75%
    18:00 +4°C° 0 mm 7 mps 764 mmHg 77%
    19:00 +3°C° 0 mm 6 mps 765 mmHg 79%
    20:00 +3°C° 0 mm 6 mps 765 mmHg 79%
    21:00 +3°C° 0 mm 5 mps 765 mmHg 79%
    22:00 +3°C° 0 mm 5 mps 765 mmHg 79%
    23:00 +3°C° 0 mm 5 mps 765 mmHg 78%

    19 December, Tuesday

    Time Temperature Precipitation Wind Pressure Humidity
    00:00 +3°C° 0 mm 5 mps 765 mmHg 77%
    01:00 +3°C° 0 mm 4 mps 765 mmHg 75%
    02:00 +3°C° 0 mm 4 mps 765 mmHg 74%
    03:00 +3°C° 0 mm 4 mps 765 mmHg 72%
    04:00 +3°C° 0 mm 4 mps 765 mmHg 71%
    05:00 +3°C° 0 mm 4 mps 765 mmHg 70%
    06:00 +3°C° 0 mm 3 mps 766 mmHg 68%
    07:00 +3°C° 0 mm 3 mps 766 mmHg 67%
    08:00 +5°C° 0 mm 3 mps 766 mmHg 61%
    09:00 +7°C° 0 mm 2 mps 767 mmHg 56%
    10:00 +8°C° 0 mm 2 mps 767 mmHg 51%
    11:00 +9°C° 0 mm 2 mps 767 mmHg 49%
    12:00 +9°C° 0 mm 2 mps 766 mmHg 47%
    13:00 +11°C° 0 mm 1 mps 766 mmHg 45%
    14:00 +9°C° 0 mm 2 mps 766 mmHg 50%
    15:00 +8°C° 0 mm 2 mps 766 mmHg 55%
    16:00 +7°C° 0 mm 2 mps 766 mmHg 60%
    17:00 +7°C° 0 mm 2 mps 766 mmHg 61%
    18:00 +5°C° 0 mm 3 mps 766 mmHg 63%
    19:00 +5°C° 0 mm 3 mps 766 mmHg 64%
    20:00 +5°C° 0 mm 3 mps 766 mmHg 63%
    21:00 +4°C° 0 mm 3 mps 766 mmHg 63%
    22:00 +4°C° 0 mm 3 mps 766 mmHg 62%
    23:00 +4°C° 0 mm 3 mps 766 mmHg 61%

    20 December, Wednesday

    Time Temperature Precipitation Wind Pressure Humidity
    00:00 +4°C° 0 mm 3 mps 766 mmHg 60%
    01:00 +4°C° 0 mm 3 mps 766 mmHg 59%
    02:00 +4°C° 0 mm 3 mps 765 mmHg 58%
    03:00 +5°C° 0 mm 2 mps 765 mmHg 57%
    04:00 +5°C° 0 mm 2 mps 765 mmHg 56%
    05:00 +3°C° 0 mm 3 mps 765 mmHg 56%
    06:00 +3°C° 0 mm 3 mps 765 mmHg 55%
    07:00 +3°C° 0 mm 3 mps 765 mmHg 55%
    08:00 +5°C° 0 mm 3 mps 765 mmHg 51%
    09:00 +7°C° 0 mm 2 mps 765 mmHg 47%
    10:00 +8°C° 0 mm 2 mps 765 mmHg 44%
    11:00 +9°C° 0 mm 2 mps 765 mmHg 42%
    12:00 +9°C° 0 mm 2 mps 764 mmHg 40%
    13:00 +10°C° 0 mm 2 mps 764 mmHg 39%
    14:00 +9°C° 0 mm 2 mps 764 mmHg 44%
    15:00 +8°C° 0 mm 2 mps 764 mmHg 48%
    16:00 +7°C° 0 mm 2 mps 764 mmHg 53%
    17:00 +7°C° 0 mm 3 mps 764 mmHg 56%
    18:00 +5°C° 0 mm 3 mps 764 mmHg 59%
    19:00 +5°C° 0 mm 3 mps 764 mmHg 61%
    20:00 +4°C° 0 mm 4 mps 765 mmHg 63%
    21:00 +4°C° 0 mm 4 mps 765 mmHg 66%
    22:00 +4°C° 0 mm 4 mps 765 mmHg 68%
    23:00 +3°C° 0 mm 4 mps 765 mmHg 68%
    Show more